EW3156 Weather Reports


Display with metric or nautical units.
time (UTC)temp
F
wind
direction
speed
MPH
gust
MPH
rain 1hr
in
rain 24hr
in
rain mn
in
humidity
%
barometer
mb
20260505153052 71 181 1.0 8.0 0.00 0.00 0.00 65 1014.8
20260505151556 71 141 1.0 5.0 0.00 0.00 0.00 66 1014.9
20260505124504 57 205 0.0 0.0 0.00 0.00 0.00 91 1014.1
20260505123104 54 205 0.0 0.0 0.00 0.00 0.00 96 1013.9
20260505121618 53 205 0.0 0.0 0.00 0.00 0.00 96 1013.8
20260505120055 52 205 0.0 2.0 0.00 0.00 0.00 96 1013.8
20260505114552 51 207 0.0 0.0 0.00 0.00 0.00 95 1013.6
20260505113049 51 207 0.0 0.0 0.00 0.00 0.00 95 1013.5
20260505111548 51 207 0.0 0.0 0.00 0.00 0.00 94 1013.3
20260505101552 53 207 0.0 0.0 0.00 0.00 0.00 93 1012.8
20260505100040 53 207 0.0 0.0 0.00 0.00 0.00 92 1012.9
20260505094540 53 207 0.0 0.0 0.00 0.00 0.00 92 1013.1
20260505093041 53 207 0.0 0.0 0.00 0.00 0.00 91 1013.2
20260505091539 53 207 0.0 0.0 0.00 0.00 0.00 90 1013.3
20260505090048 54 207 0.0 0.0 0.00 0.00 0.00 89 1013.2
20260505084531 54 207 0.0 0.0 0.00 0.00 0.00 89 1013.4
20260505083032 54 207 0.0 0.0 0.00 0.00 0.00 88 1013.4
20260505081531 55 207 0.0 0.0 0.00 0.00 0.00 88 1013.5
20260505080027 55 207 0.0 0.0 0.00 0.00 0.00 87 1013.6
20260505074524 56 207 0.0 0.0 0.00 0.00 0.00 86 1013.8
20260505073032 56 207 0.0 0.0 0.00 0.00 0.00 84 1013.8
20260505071524 57 207 0.0 0.0 0.00 0.00 0.00 82 1013.7
20260505070022 57 207 0.0 0.0 0.00 0.00 0.00 81 1013.6
20260505064525 58 207 0.0 0.0 0.00 0.00 0.00 80 1013.6
20260505063024 58 207 0.0 0.0 0.00 0.00 0.00 77 1013.7
20260505061519 58 207 0.0 1.0 0.00 0.00 0.00 79 1013.7
20260505060027 56 207 0.0 1.0 0.00 0.00 0.00 82 1014.0
20260505054531 56 207 0.0 1.0 0.00 0.00 0.00 85 1013.9
20260505053014 56 207 0.0 0.0 0.00 0.00 0.00 84 1013.9
20260505051512 57 207 0.0 1.0 0.00 0.00 0.00 82 1013.7
20260505041506 59 207 0.0 1.0 0.00 0.00 0.00 77 1013.5
20260505040005 60 207 0.0 0.0 0.00 0.00 0.00 74 1013.5
20260505034504 60 207 0.0 1.0 0.00 0.00 0.00 71 1013.6
20260505033010 61 207 0.0 1.0 0.00 0.00 0.00 69 1013.7
20260505031503 62 207 0.0 0.0 0.00 0.00 0.00 69 1013.6
20260505030003 62 207 0.0 0.0 0.00 0.00 0.00 67 1013.6
20260505024504 63 207 0.0 0.0 0.00 0.00 0.00 67 1013.7
20260505023002 64 207 0.0 0.0 0.00 0.00 0.00 64 1013.6
20260505021502 64 207 0.0 0.0 0.00 0.00 0.00 62 1013.5
20260505020001 65 207 0.0 2.0 0.00 0.00 0.00 61 1013.2
20260505014601 66 207 0.0 0.0 0.00 0.00 0.00 60 1013.2
20260505013059 67 207 0.0 0.0 0.00 0.00 0.00 59 1013.1
20260505011602 68 207 0.0 0.0 0.00 0.00 0.00 57 1013.0
20260505004600 71 207 0.0 0.0 0.00 0.00 0.00 52 1012.9
20260505003059 72 207 0.0 1.0 0.00 0.00 0.00 50 1012.8
20260505001555 73 211 0.0 3.0 0.00 0.00 0.00 49 1012.6
20260505000100 74 34 0.0 1.0 0.00 0.00 0.00 47 1012.6
20260504234615 75 87 0.0 3.0 0.00 0.00 0.00 45 1012.7
20260504233053 75 240 0.0 5.0 0.00 0.00 0.00 45 1012.8
20260504231555 76 193 1.0 5.0 0.00 0.00 0.00 44 1012.8
20260504230050 77 130 0.0 4.0 0.00 0.00 0.00 46 1012.9
20260504224649 77 136 0.0 5.0 0.00 0.00 0.00 43 1013.0
20260504223047 77 178 1.0 8.0 0.00 0.00 0.00 43 1013.1
20260504221557 78 55 0.0 7.0 0.00 0.00 0.00 43 1013.2
20260504220050 78 165 1.0 3.0 0.00 0.00 0.00 43 1013.1
20260504214550 79 169 1.0 3.0 0.00 0.00 0.00 42 1013.3
20260504213051 79 70 1.0 4.0 0.00 0.00 0.00 41 1013.4
20260504211542 80 297 1.0 5.0 0.00 0.00 0.00 42 1013.5
20260504210052 80 95 1.0 4.0 0.00 0.00 0.00 39 1013.5
20260504204619 80 54 0.0 4.0 0.00 0.00 0.00 39 1013.6
20260504203038 81 65 1.0 7.0 0.00 0.00 0.00 40 1013.7
20260504201536 80 147 1.0 6.0 0.00 0.00 0.00 40 1013.8
20260504200038 80 293 1.0 5.0 0.00 0.00 0.00 38 1014.0
20260504194541 80 67 2.0 5.0 0.00 0.00 0.00 39 1014.3
20260504193031 79 102 1.0 3.0 0.00 0.00 0.00 43 1014.5
20260504191529 79 200 1.0 4.0 0.00 0.00 0.00 44 1014.7
20260504190030 79 88 0.0 4.0 0.00 0.00 0.00 43 1014.8
20260504184525 80 157 2.0 5.0 0.00 0.00 0.00 43 1015.2
20260504183022 79 77 2.0 6.0 0.00 0.00 0.00 41 1015.3
20260504181519 79 121 2.0 4.0 0.00 0.00 0.00 43 1015.6
20260504180017 78 182 0.0 2.0 0.00 0.00 0.00 44 1015.8
20260504174515 78 150 0.0 5.0 0.00 0.00 0.00 46 1015.9
20260504173011 77 192 0.0 4.0 0.00 0.00 0.00 45 1016.2
20260504171531 76 285 1.0 7.0 0.00 0.00 0.00 46 1016.3